Weather reports worldwide

Advertisment
St-Girons, France (7627): temperature & dewpoint: 20.05.2019 02:00:00 - 26.05.2019 02:00:00 (CEST)St-Girons, France (7627): temperature 5cm: 20.05.2019 02:00:00 - 26.05.2019 02:00:00 (CEST)St-Girons, France (7627): temperature -20cm & temperature -100cm: 20.05.2019 02:00:00 - 26.05.2019 02:00:00 (CEST)St-Girons, France (7627): wind speed & gusts: 20.05.2019 02:00:00 - 26.05.2019 02:00:00 (CEST)St-Girons, France (7627): wind direction: 20.05.2019 02:00:00 - 26.05.2019 02:00:00 (CEST)St-Girons, France (7627): reduced air pressure: 20.05.2019 02:00:00 - 26.05.2019 02:00:00 (CEST)St-Girons, France (7627): visibility: 20.05.2019 02:00:00 - 26.05.2019 02:00:00 (CEST)St-Girons, France (7627): sunshine duration: 20.05.2019 02:00:00 - 26.05.2019 02:00:00 (CEST)St-Girons, France (7627): precipitation: 20.05.2019 02:00:00 - 26.05.2019 02:00:00 (CEST)
Date & Time tt [°C] td [°C] tt 5cm [°C] tt -20cm [°C] tt -100cm [°C] ff [km/h] ff [kn] fx [km/h] fx [kn] dd ppp [hPa] vv [km] sd [min] rr [mm]
26.05.2019 02:00:00 - - - - - - - - - - - - - -
26.05.2019 01:00:00 12,1 11,0 12,0 15,4 14,1 12 7 28 15 WNW 1023,5 17 0 0,2
26.05.2019 00:00:00 12,4 11,0 12,1 15,5 14,1 8 5 16 9 WNW 1023,4 20 0 1,0
25.05.2019 23:00:00 13,7 9,5 12,1 15,4 14,1 11 6 19 11 W 1023,1 20 0 0,0
25.05.2019 22:00:00 13,8 9,6 12,7 15,4 14,1 8 4 14 8 WNW 1022,5 20 0 0,0
25.05.2019 21:00:00 14,3 9,5 14,4 15,4 14,1 4 2 17 9 WNW 1021,9 20 0 0,0
25.05.2019 20:00:00 14,8 10,0 15,0 15,3 14,0 10 5 24 13 WNW 1021,6 20 0 0,0
25.05.2019 19:00:00 16,0 10,7 17,5 15,3 14,0 6 3 16 9 W 1021,0 20 0 0,0
25.05.2019 18:00:00 15,8 10,3 18,1 15,3 14,0 11 6 23 13 WNW 1021,1 20 0 0,0
25.05.2019 17:00:00 15,4 10,8 15,1 15,3 14,0 3 2 13 7 SW 1021,0 20 0 0,0
25.05.2019 16:00:00 14,5 10,7 15,4 15,3 14,0 7 4 15 8 WNW 1021,3 20 0 0,0
25.05.2019 15:00:00 15,3 10,5 18,3 15,3 14,0 10 5 23 13 WNW 1021,3 20 3 0,0
25.05.2019 14:00:00 15,3 12,1 15,8 15,3 14,0 15 8 23 13 WNW 1021,6 20 0 0,0
25.05.2019 13:00:00 13,0 11,6 13,5 15,4 14,0 11 6 29 16 WNW 1021,9 20 0 0,0
25.05.2019 12:00:00 11,9 11,0 12,8 15,4 14,0 13 7 24 13 WNW 1021,8 15 0 0,8
25.05.2019 11:00:00 11,8 10,7 12,7 15,4 14,0 12 6 21 11 WNW 1021,5 6 0 1,2
25.05.2019 10:00:00 11,4 10,5 11,6 15,5 14,0 5 3 23 12 NW 1021,2 11 0 1,6
25.05.2019 09:00:00 11,2 9,9 11,6 15,5 14,0 7 4 16 9 NW 1021,0 16 0 0,8
25.05.2019 08:00:00 11,1 10,0 11,2 15,5 14,0 10 5 22 12 WNW 1020,5 17 0 0,2
25.05.2019 07:00:00 11,3 10,0 11,1 15,5 13,9 14 8 26 14 WNW 1019,9 20 0 0,6
25.05.2019 06:00:00 11,5 10,1 11,1 15,6 13,9 15 8 30 16 WNW 1019,7 20 0 0,6
25.05.2019 05:00:00 11,5 10,2 11,2 15,6 14,0 16 9 36 20 WNW 1019,3 13 0 0,6
25.05.2019 04:00:00 11,7 10,4 11,4 15,6 13,9 18 10 36 19 WNW 1019,4 20 0 0,8
25.05.2019 03:00:00 11,9 10,6 11,5 15,7 13,9 17 9 27 14 WNW 1019,3 20 0 0,6
25.05.2019 02:00:00 11,9 11,0 11,5 15,7 13,9 14 8 26 14 WNW 1019,7 7 0 1,2
25.05.2019 01:00:00 12,1 11,2 11,8 15,7 13,9 16 9 29 16 W 1019,8 10 0 1,5
25.05.2019 00:00:00 12,2 11,1 11,9 15,7 13,9 15 8 24 13 WNW 1019,6 10 0 1,2
24.05.2019 23:00:00 12,0 11,1 11,9 15,7 13,9 4 2 22 12 N 1019,8 9 0 2,0
24.05.2019 22:00:00 12,1 11,0 12,1 15,7 13,9 7 4 16 9 WNW 1019,2 10 0 2,0
24.05.2019 21:00:00 12,0 11,1 12,5 15,7 13,9 5 3 22 12 NW 1019,0 8 0 1,8
24.05.2019 20:00:00 12,4 11,0 13,1 15,7 13,9 10 6 19 10 WNW 1018,6 5 0 1,4
24.05.2019 19:00:00 12,7 11,3 14,2 15,7 13,9 13 7 27 15 WNW 1018,4 14 0 1,0
24.05.2019 18:00:00 12,7 11,4 14,3 15,6 13,9 10 5 26 14 WNW 1018,6 12 0 1,4
24.05.2019 17:00:00 12,7 11,6 14,4 15,7 13,9 16 9 29 16 WNW 1018,6 4,2 0 1,5
24.05.2019 16:00:00 13,6 11,8 16,2 15,7 13,9 14 7 21 11 WNW 1018,4 20 0 0,6
24.05.2019 15:00:00 14,1 12,1 17,5 15,7 13,9 6 4 11 6 N 1018,3 20 0 0,6
24.05.2019 14:00:00 14,0 12,0 17,6 15,7 13,9 3 2 6 4 ENE 1018,4 20 0 0,4
24.05.2019 13:00:00 13,2 11,9 15,5 15,8 13,9 3 1 10 5 N 1018,9 20 0 1,2
24.05.2019 12:00:00 12,5 11,6 14,4 15,8 13,9 5 3 9 5 NNW 1019,2 8 0 1,8
24.05.2019 11:00:00 12,2 11,1 13,7 15,9 13,8 4 2 6 4 N 1019,2 10 0 1,4
24.05.2019 10:00:00 12,0 11,2 12,0 15,9 13,8 3 1 11 6 W 1019,1 7 0 3,0
24.05.2019 09:00:00 11,7 10,8 11,9 16,0 13,9 5 3 13 7 NW 1019,1 5 0 2,9
24.05.2019 08:00:00 11,6 10,8 11,7 16,0 13,9 5 3 17 9 NNW 1018,9 6 0 3,8
24.05.2019 07:00:00 12,0 11,1 12,1 16,0 13,9 3 1 13 7 SW 1018,6 5 0 1,4
24.05.2019 06:00:00 12,2 10,9 12,2 16,0 13,8 7 4 22 12 NW 1018,3 19 0 0,2
24.05.2019 05:00:00 12,3 11,0 12,2 16,1 13,8 16 9 25 13 WNW 1018,3 15 0 0,0
24.05.2019 04:00:00 12,5 10,9 12,2 16,1 13,9 12 6 23 13 NW 1018,4 15 0 0,0
24.05.2019 03:00:00 12,6 11,3 12,6 16,1 13,8 12 6 29 16 NNW 1018,6 12 0 0,0
24.05.2019 02:00:00 12,9 11,6 13,0 16,1 13,8 20 11 29 16 NW 1018,8 20 0 0,0
24.05.2019 01:00:00 14,1 13,1 13,3 16,0 13,8 0 0 6 3 N 1018,5 11 0 0,0
24.05.2019 00:00:00 14,2 12,9 13,7 16,1 13,8 3 2 21 11 S 1018,9 15 0 0,8
23.05.2019 23:00:00 15,3 12,8 14,4 16,0 13,8 9 5 20 11 SSE 1019,4 12 0 1,0
23.05.2019 22:00:00 18,2 10,1 15,5 15,9 13,8 4 2 13 7 NW 1017,9 20 0 0,0
23.05.2019 21:00:00 18,6 10,7 16,4 15,9 13,8 5 3 8 5 WSW 1016,6 20 0 0,0
23.05.2019 20:00:00 20,2 10,9 19,5 15,7 13,8 5 3 14 7 WSW 1015,7 20 3 0,0
23.05.2019 19:00:00 22,2 10,0 23,5 15,6 13,8 10 5 18 10 NW 1015,1 20 16 0,0
23.05.2019 18:00:00 23,2 9,2 27,6 15,5 13,8 9 5 16 9 NNW 1015,0 20 33 0,0
23.05.2019 17:00:00 23,2 8,5 28,9 15,3 13,7 11 6 18 10 NNW 1015,0 19 26 0,0
23.05.2019 16:00:00 24,2 9,0 33,8 15,2 13,8 8 5 23 12 NNW 1014,9 20 52 0,0
23.05.2019 15:00:00 24,1 9,3 35,5 15,1 13,8 12 7 29 15 NW 1015,3 20 60 0,0
23.05.2019 14:00:00 24,1 9,7 33,8 15,1 13,8 7 4 22 12 NW 1015,4 20 60 0,0
23.05.2019 13:00:00 23,4 10,4 30,5 15,1 13,8 9 5 19 10 NW 1015,9 20 60 0,0
23.05.2019 12:00:00 22,6 9,7 26,5 15,1 13,8 3 2 9 5 NNW 1016,5 20 60 0,0
23.05.2019 11:00:00 21,6 10,4 20,0 15,2 13,8 4 2 11 6 NNE 1016,8 20 60 0,0
23.05.2019 10:00:00 18,5 10,6 15,0 15,2 13,8 2 1 7 4 SW 1017,6 20 60 0,0
23.05.2019 09:00:00 15,3 10,5 9,7 15,3 13,8 0 0 8 4 N 1017,9 20 60 0,0
23.05.2019 08:00:00 10,5 9,7 4,6 15,4 13,8 0 0 4 2 N 1018,6 20 39 0,0
23.05.2019 07:00:00 7,7 6,9 3,7 15,5 13,8 0 0 4 2 N 1019,0 16 0 0,0
23.05.2019 06:00:00 7,8 6,7 4,1 15,5 13,7 0 0 7 4 N 1018,6 17 0 0,0
23.05.2019 05:00:00 9,6 8,0 5,8 15,6 13,7 3 2 19 11 E 1018,2 20 0 0,0
23.05.2019 04:00:00 10,8 8,7 5,4 15,6 13,8 10 6 16 9 SSE 1018,0 20 0 0,0
23.05.2019 03:00:00 9,4 8,3 5,4 15,7 13,7 3 2 13 7 WSW 1018,7 20 0 0,0
23.05.2019 02:00:00 9,2 8,0 5,4 15,7 13,7 2 1 6 4 S 1019,3 20 0 0,0
23.05.2019 01:00:00 9,7 8,3 6,0 15,7 13,7 0 0 5 3 N 1019,5 20 0 0,0
23.05.2019 00:00:00 11,1 8,7 6,9 15,7 13,7 2 1 8 5 SSE 1019,5 20 0 0,0
22.05.2019 23:00:00 12,0 8,7 7,6 15,6 13,7 2 1 6 3 S 1019,6 20 0 0,0
22.05.2019 22:00:00 14,3 9,5 9,6 15,5 13,7 2 1 8 4 S 1018,8 20 0 0,0
22.05.2019 21:00:00 17,8 9,9 14,2 15,5 13,7 4 2 10 5 WSW 1017,7 20 45 0,0
22.05.2019 20:00:00 21,4 8,0 20,5 15,4 13,7 5 3 12 6 NNE 1016,8 20 60 0,0
22.05.2019 19:00:00 21,7 7,5 24,3 15,3 13,7 6 3 17 9 NNE 1016,7 20 40 0,0
22.05.2019 18:00:00 22,2 9,7 29,8 15,1 13,7 6 4 19 10 NNE 1016,8 20 54 0,0
22.05.2019 17:00:00 21,6 10,1 25,3 15,0 13,7 6 3 18 10 NNE 1017,0 18 23 0,0
22.05.2019 16:00:00 22,3 9,8 32,4 14,8 13,7 7 4 22 12 N 1017,0 19 51 0,0
22.05.2019 15:00:00 22,0 10,2 33,5 14,8 13,7 7 4 21 12 NW 1017,5 20 55 0,0
22.05.2019 14:00:00 21,2 10,1 31,9 14,8 13,7 9 5 16 8 WNW 1017,9 20 60 0,0
22.05.2019 13:00:00 20,0 8,0 28,7 14,7 13,7 7 4 21 12 N 1018,7 20 60 0,0
22.05.2019 12:00:00 19,7 8,1 23,9 14,8 13,7 3 1 11 6 S 1019,0 20 60 0,0
22.05.2019 11:00:00 17,9 9,0 19,1 14,8 13,7 3 1 10 6 WNW 1019,4 20 60 0,0
22.05.2019 10:00:00 17,4 10,0 14,1 14,9 13,7 3 2 12 7 E 1019,6 20 60 0,0
22.05.2019 09:00:00 14,2 10,2 9,6 15,0 13,7 2 1 6 3 SE 1020,1 20 60 0,0
22.05.2019 08:00:00 9,7 9,1 3,7 15,1 13,7 0 0 5 3 N 1021,1 19 45 0,0
22.05.2019 07:00:00 6,5 5,9 2,8 15,1 13,7 4 2 5 3 W 1021,1 10 0 0,0
22.05.2019 06:00:00 6,5 5,9 2,9 15,2 13,7 4 2 8 4 S 1020,8 4,9 0 0,0
22.05.2019 05:00:00 6,4 5,7 3,2 15,3 13,7 3 1 4 2 WSW 1020,8 6 0 0,0
22.05.2019 04:00:00 7,3 6,7 3,6 15,3 13,7 0 0 4 2 N 1020,9 1,8 0 0,0
22.05.2019 03:00:00 7,8 6,9 4,2 15,3 13,7 0 0 5 3 N 1020,8 8 0 0,0
22.05.2019 02:00:00 8,6 7,5 4,8 15,3 13,7 0 0 5 3 N 1020,5 16 0 0,0
22.05.2019 01:00:00 10,5 8,9 6,9 15,3 13,7 0 0 4 2 N 1020,4 17 0 0,0
22.05.2019 00:00:00 12,3 10,4 10,0 15,3 13,7 0 0 6 3 N 1020,2 20 0 0,0
21.05.2019 23:00:00 13,4 10,7 12,1 15,3 13,7 0 0 2 1 N 1020,3 20 0 0,0
21.05.2019 22:00:00 13,5 10,8 11,5 15,2 13,7 0 0 3 2 N 1019,6 20 0 0,0
21.05.2019 21:00:00 15,3 9,6 14,1 15,1 13,7 2 1 6 3 W 1018,5 20 17 0,0
21.05.2019 20:00:00 16,0 10,1 16,4 15,1 13,7 4 2 15 8 W 1017,8 20 9 0,0
21.05.2019 19:00:00 17,9 9,3 19,9 15,0 13,7 2 1 15 8 NE 1017,2 20 30 0,0
21.05.2019 18:00:00 17,6 9,2 21,7 14,9 13,7 9 5 21 11 NNW 1017,3 20 16 0,0
21.05.2019 17:00:00 18,6 9,6 20,3 14,8 13,7 7 4 17 9 ENE 1017,3 19 16 0,0
21.05.2019 16:00:00 17,2 9,4 23,7 14,7 13,7 10 5 22 12 NNW 1017,7 20 25 0,0
21.05.2019 15:00:00 16,6 8,8 20,4 14,6 13,7 9 5 21 11 N 1017,7 20 6 0,0
21.05.2019 14:00:00 16,7 8,4 22,3 14,6 13,7 8 5 21 11 N 1017,6 20 27 0,0
21.05.2019 13:00:00 17,5 10,1 23,8 14,6 13,7 6 3 23 12 NNW 1017,5 20 45 0,0
21.05.2019 12:00:00 16,0 8,7 22,1 14,6 13,7 7 4 19 10 NNW 1017,8 20 50 0,0
21.05.2019 11:00:00 15,2 9,3 16,8 14,6 13,7 9 5 16 9 N 1018,1 20 60 0,0
21.05.2019 10:00:00 13,6 9,4 14,1 14,7 13,7 3 2 8 4 WNW 1018,2 19 57 0,0
21.05.2019 09:00:00 11,5 10,7 10,5 14,7 13,7 0 0 4 2 N 1018,5 1,8 53 0,0
21.05.2019 08:00:00 8,7 8,2 6,5 14,8 13,7 0 0 3 2 N 1018,7 0,1 0 0,2
21.05.2019 07:00:00 7,5 6,8 6,2 14,8 13,7 0 0 3 2 N 1018,3 0,2 0 0,0
21.05.2019 06:00:00 8,2 7,6 7,0 14,9 13,7 0 0 3 1 N 1018,1 1,2 0 0,0
21.05.2019 05:00:00 8,0 7,4 6,7 14,9 13,7 2 1 4 2 WSW 1018,1 0,2 0 0,0
21.05.2019 04:00:00 8,2 7,6 4,6 14,9 13,7 0 0 4 2 N 1017,8 12 0 0,0
21.05.2019 03:00:00 8,6 7,8 4,8 14,9 13,7 0 0 6 3 N 1017,8 2,3 0 0,0
21.05.2019 02:00:00 9,7 8,8 7,9 15,0 13,7 0 0 4 2 N 1017,9 12 0 0,0
21.05.2019 01:00:00 10,4 9,5 10,5 15,0 13,7 3 2 7 4 SW 1018,0 8 0 0,0
21.05.2019 00:00:00 10,6 9,5 10,3 15,0 13,7 3 1 16 9 ENE 1018,1 16 0 1,2
20.05.2019 23:00:00 10,9 9,8 10,1 14,9 13,7 11 6 20 11 W 1017,9 7 0 0,4
20.05.2019 22:00:00 11,5 9,7 11,0 14,9 13,7 4 2 15 8 E 1016,6 20 0 0,8
20.05.2019 21:00:00 12,9 8,4 11,7 14,8 13,7 6 3 22 12 WNW 1015,8 20 0 0,0
20.05.2019 20:00:00 14,6 7,4 14,5 14,7 13,7 5 3 13 7 WSW 1014,8 20 0 0,0
20.05.2019 19:00:00 15,5 7,5 16,3 14,6 13,7 8 4 16 9 W 1014,4 20 0 0,0
20.05.2019 18:00:00 15,8 7,5 18,1 14,6 13,7 9 5 21 11 W 1014,0 20 0 0,0
20.05.2019 17:00:00 16,1 7,0 21,9 14,5 13,7 13 7 24 13 NW 1014,0 20 19 0,0
20.05.2019 16:00:00 16,6 8,0 22,9 14,4 13,7 9 5 29 15 WNW 1014,1 20 13 0,0
20.05.2019 15:00:00 15,5 7,0 22,3 14,4 13,7 13 7 21 11 WNW 1014,6 20 11 0,0
20.05.2019 14:00:00 14,5 7,5 17,5 14,3 13,7 16 8 25 14 NNW 1015,1 20 3 0,0
20.05.2019 13:00:00 12,9 7,3 17,9 14,4 13,7 18 10 26 14 NW 1015,5 20 34 0,0
20.05.2019 12:00:00 13,7 7,5 17,4 14,4 13,7 10 6 22 12 W 1015,4 20 35 0,0
20.05.2019 11:00:00 12,5 8,8 11,5 14,4 13,7 6 4 18 10 WNW 1015,9 19 18 0,0
20.05.2019 10:00:00 9,5 8,3 10,6 14,4 13,7 3 1 6 3 SE 1016,4 16 0 0,6
20.05.2019 09:00:00 9,3 7,7 10,3 14,5 13,7 0 0 6 4 N 1016,1 20 0 0,2
20.05.2019 08:00:00 8,9 8,0 9,1 14,6 13,7 0 0 6 4 N 1015,6 18 0 0,2
20.05.2019 07:00:00 8,5 7,4 8,9 14,6 13,7 2 1 7 4 SSE 1015,1 18 0 0,0
20.05.2019 06:00:00 8,6 7,7 9,0 14,6 13,7 0 0 4 2 N 1014,7 14 0 0,0
20.05.2019 05:00:00 8,6 7,7 8,8 14,6 13,7 2 1 8 4 S 1014,5 20 0 0,0
20.05.2019 04:00:00 8,7 7,8 8,9 14,6 13,7 4 2 6 3 SSW 1014,8 20 0 0,2
20.05.2019 03:00:00 8,9 7,8 9,1 14,7 13,7 0 0 5 3 N 1015,0 17 0 0,0
20.05.2019 02:00:00 8,9 7,7 9,1 14,7 13,7 0 0 4 2 N 1015,3 18 0 0,0

tt = temperature
td = dewpoint
tt 5cm = temperature 5cm
tt -20cm = temperature -20cm
tt -100cm = temperature -100cm
ff = wind speed
fx = gusts
dd = wind direction
ppp = reduced air pressure
vv = visibility
sd = sunshine duration
rr = precipitation

Next stations